N8QF Weather Reports


time (UTC)temp
C
wind
direction
speed
KPH
gust
KPH
rain 1hr
cm
rain 24hr
cm
rain mn
cm
humidity
%
barometer
mb
20260902231525 32 217 8.0 14.5 0.00 0.00 0.00 49 1015.0
20260902231024 32 238 8.0 14.5 0.00 0.00 0.00 48 1015.0
20260902230524 32 233 9.7 16.1 0.00 0.00 0.00 48 1014.8
20260902230024 32 212 8.0 17.7 0.00 0.00 0.00 48 1014.8
20260902225524 32 236 8.0 14.5 0.00 0.00 0.00 48 1015.0
20260902225023 32 239 9.7 14.5 0.00 0.00 0.00 47 1015.0
20260902224523 32 218 8.0 16.1 0.00 0.00 0.00 47 1015.0
20260902224024 32 208 8.0 14.5 0.00 0.00 0.00 47 1015.0
20260902223020 32 224 11.3 17.7 0.00 0.00 0.00 46 1015.0
20260902222520 32 221 11.3 19.3 0.00 0.00 0.00 46 1015.0
20260902222019 33 232 9.7 16.1 0.00 0.00 0.00 46 1015.1
20260902221519 33 231 9.7 19.3 0.00 0.00 0.00 45 1015.1
20260902221019 33 215 11.3 22.5 0.00 0.00 0.00 44 1015.1
20260902220519 33 221 9.7 19.3 0.00 0.00 0.00 45 1015.1
20260902220018 33 215 9.7 20.9 0.00 0.00 0.00 46 1015.2
20260902215518 33 197 11.3 22.5 0.00 0.00 0.00 45 1015.1
20260902215019 33 228 9.7 17.7 0.00 0.00 0.00 44 1015.1
20260902214518 33 236 6.4 11.3 0.00 0.00 0.00 46 1015.2
20260902214017 33 229 11.3 19.3 0.00 0.00 0.00 46 1015.2
20260902213517 33 229 9.7 17.7 0.00 0.00 0.00 44 1015.2
20260902213017 33 229 9.7 16.1 0.00 0.00 0.00 46 1015.2
20260902212518 33 229 14.5 27.4 0.00 0.00 0.00 45 1015.2
20260902212017 33 224 12.9 20.9 0.00 0.00 0.00 45 1015.3
20260902211516 33 228 9.7 20.9 0.00 0.00 0.00 45 1015.3
20260902211016 33 221 9.7 16.1 0.00 0.00 0.00 44 1015.3
20260902210517 33 290 8.0 16.1 0.00 0.00 0.00 43 1015.4
20260902210016 33 221 6.4 14.5 0.00 0.00 0.00 46 1015.4
20260902205515 33 221 8.0 17.7 0.00 0.00 0.00 45 1015.5
20260902205016 34 224 11.3 19.3 0.00 0.00 0.00 44 1015.4
20260902204515 34 221 9.7 16.1 0.00 0.00 0.00 45 1015.5
20260902204016 33 253 8.0 16.1 0.00 0.00 0.00 42 1015.5
20260902203514 34 218 8.0 19.3 0.00 0.00 0.00 42 1015.5
20260902203014 35 222 6.4 17.7 0.00 0.00 0.00 44 1015.6
20260902202514 35 231 8.0 17.7 0.00 0.00 0.00 44 1015.6
20260902202014 34 257 6.4 12.9 0.00 0.00 0.00 43 1015.6
20260902201513 34 224 8.0 17.7 0.00 0.00 0.00 43 1015.6
20260902201013 33 231 9.7 19.3 0.00 0.00 0.00 43 1015.6
20260902200513 34 224 11.3 19.3 0.00 0.00 0.00 40 1015.7
20260902200013 34 222 8.0 14.5 0.00 0.00 0.00 44 1015.7
20260902195513 34 224 9.7 19.3 0.00 0.00 0.00 43 1015.8
20260902195012 34 212 11.3 24.1 0.00 0.00 0.00 42 1015.8
20260902194513 34 218 9.7 17.7 0.00 0.00 0.00 40 1015.9
20260902194012 35 217 4.8 17.7 0.00 0.00 0.00 44 1015.9
20260902193511 35 278 6.4 16.1 0.00 0.00 0.00 42 1016.0
20260902193011 34 215 9.7 16.1 0.00 0.00 0.00 42 1016.1
20260902192511 33 200 9.7 17.7 0.00 0.00 0.00 42 1016.2
20260902192011 34 252 4.8 12.9 0.00 0.00 0.00 42 1016.2
20260902191511 34 300 9.7 16.1 0.00 0.00 0.00 43 1016.3
20260902191010 34 207 8.0 20.9 0.00 0.00 0.00 43 1016.3
20260902190510 33 235 11.3 19.3 0.00 0.00 0.00 44 1016.4
20260902190009 34 214 9.7 17.7 0.00 0.00 0.00 43 1016.4
20260902185509 34 235 8.0 17.7 0.00 0.00 0.00 41 1016.4
20260902185009 34 222 9.7 19.3 0.00 0.00 0.00 42 1016.4
20260902184508 33 235 11.3 22.5 0.00 0.00 0.00 45 1016.5
20260902184009 33 218 11.3 17.7 0.00 0.00 0.00 45 1016.6
20260902183508 34 208 9.7 19.3 0.00 0.00 0.00 47 1016.6
20260902183007 33 255 6.4 12.9 0.00 0.00 0.00 44 1016.5
20260902182509 33 321 6.4 14.5 0.00 0.00 0.00 44 1016.6
20260902182008 33 219 8.0 19.3 0.00 0.00 0.00 47 1016.6
20260902181507 33 219 8.0 17.7 0.00 0.00 0.00 48 1016.7
20260902181006 32 231 6.4 16.1 0.00 0.00 0.00 47 1016.8
20260902180506 33 232 9.7 17.7 0.00 0.00 0.00 45 1016.8
20260902180007 33 214 9.7 19.3 0.00 0.00 0.00 46 1016.8
20260902175007 33 217 11.3 20.9 0.00 0.00 0.00 48 1017.0
20260902174505 33 218 11.3 19.3 0.00 0.00 0.00 50 1017.0
20260902174005 33 231 11.3 17.7 0.00 0.00 0.00 48 1017.1
20260902173505 32 229 11.3 17.7 0.00 0.00 0.00 49 1017.2
20260902173006 32 215 11.3 20.9 0.00 0.00 0.00 49 1017.2
20260902172502 33 245 8.0 17.7 0.00 0.00 0.00 50 1017.3
20260902172004 33 243 8.0 17.7 0.00 0.00 0.00 50 1017.3
20260902171502 33 250 8.0 16.1 0.00 0.00 0.00 48 1017.3
20260902171003 33 232 4.8 12.9 0.00 0.00 0.00 52 1017.3
20260902170501 32 233 6.4 12.9 0.00 0.00 0.00 51 1017.3
20260902170001 32 228 8.0 14.5 0.00 0.00 0.00 52 1017.3
20260902165501 32 219 11.3 20.9 0.00 0.00 0.00 51 1017.4
20260902165002 32 231 4.8 16.1 0.00 0.00 0.00 51 1017.4
20260902164500 32 222 6.4 17.7 0.00 0.00 0.00 51 1017.4
20260902164000 32 231 6.4 11.3 0.00 0.00 0.00 51 1017.4
20260902163500 32 248 6.4 12.9 0.00 0.00 0.00 51 1017.5
20260902163000 32 305 6.4 12.9 0.00 0.00 0.00 52 1017.5
20260902162500 32 219 8.0 14.5 0.00 0.00 0.00 53 1017.5
20260902161959 32 257 8.0 11.3 0.00 0.00 0.00 54 1017.4
20260902161459 32 231 4.8 9.7 0.00 0.00 0.00 55 1017.5
20260902160959 32 231 6.4 14.5 0.00 0.00 0.00 55 1017.5
20260902160459 31 312 6.4 12.9 0.00 0.00 0.00 56 1017.6
20260902155958 31 219 6.4 14.5 0.00 0.00 0.00 58 1017.6
20260902155458 31 236 8.0 12.9 0.00 0.00 0.00 56 1017.6
20260902154958 31 225 8.0 17.7 0.00 0.00 0.00 56 1017.6
20260902154458 31 316 4.8 9.7 0.00 0.00 0.00 58 1017.7
20260902153958 31 235 4.8 9.7 0.00 0.00 0.00 58 1017.7
20260902153458 31 235 8.0 12.9 0.00 0.00 0.00 60 1017.7
20260902152955 31 290 4.8 9.7 0.00 0.00 0.00 59 1017.7
20260902151955 31 281 4.8 9.7 0.00 0.00 0.00 60 1017.7
20260902151456 30 340 3.2 8.0 0.00 0.00 0.00 60 1017.8
20260902150954 30 297 4.8 11.3 0.00 0.00 0.00 60 1017.8
20260902145954 30 248 4.8 11.3 0.00 0.00 0.00 61 1017.8
20260902145454 30 259 3.2 6.4 0.00 0.00 0.00 63 1017.8
20260902144954 29 218 6.4 16.1 0.00 0.00 0.00 63 1017.8
20260902143953 29 231 8.0 16.1 0.00 0.00 0.00 64 1017.7
20260902143453 28 224 8.0 14.5 0.00 0.00 0.00 64 1017.8
20260902142953 28 217 8.0 14.5 0.00 0.00 0.00 63 1017.7
20260902142453 28 228 8.0 16.1 0.00 0.00 0.00 66 1017.8
20260902141952 28 246 6.4 12.9 0.00 0.00 0.00 66 1017.7
20260902141453 28 231 6.4 16.1 0.00 0.00 0.00 66 1017.7
20260902140952 28 228 6.4 12.9 0.00 0.00 0.00 67 1017.7
20260902140451 27 221 9.7 16.1 0.00 0.00 0.00 66 1017.7
20260902135952 28 232 6.4 14.5 0.00 0.00 0.00 66 1017.7
20260902135451 27 232 4.8 11.3 0.00 0.00 0.00 68 1017.7
20260902134951 27 233 6.4 12.9 0.00 0.00 0.00 68 1017.8
20260902134451 27 256 4.8 12.9 0.00 0.00 0.00 69 1017.7
20260902133951 27 231 6.4 14.5 0.00 0.00 0.00 70 1017.7
20260902133036 27 238 1.6 6.4 0.00 0.00 0.00 73 1017.7
20260902132949 27 238 1.6 6.4 0.00 0.00 0.00 73 1017.7
20260902132449 26 239 3.2 8.0 0.00 0.00 0.00 74 1017.7
20260902131949 26 208 3.2 9.7 0.00 0.00 0.00 71 1017.7
20260902131449 26 215 1.6 8.0 0.00 0.00 0.00 74 1017.7
20260902130949 26 233 0.0 3.2 0.00 0.00 0.00 76 1017.7
20260902130447 26 186 0.0 1.6 0.00 0.00 0.00 76 1017.8
20260902125948 25 187 0.0 4.8 0.00 0.00 0.00 76 1017.7
20260902125448 25 0 0.0 0.0 0.00 0.00 0.00 77 1017.7
20260902124947 25 0 0.0 0.0 0.00 0.00 0.00 79 1017.7
20260902124448 25 162 0.0 1.6 0.00 0.00 0.00 80 1017.7
20260902123946 25 0 0.0 0.0 0.00 0.00 0.00 82 1017.6
20260902123446 24 0 0.0 0.0 0.00 0.00 0.00 83 1017.6
20260902122946 24 0 0.0 0.0 0.00 0.00 0.00 85 1017.6
20260902122447 23 0 0.0 0.0 0.00 0.00 0.00 87 1017.5
20260902121945 23 0 0.0 0.0 0.00 0.00 0.00 87 1017.5
20260902121445 23 0 0.0 0.0 0.00 0.00 0.00 88 1017.5
20260902120945 23 0 0.0 0.0 0.00 0.00 0.00 89 1017.5
20260902120445 22 0 0.0 0.0 0.00 0.00 0.00 89 1017.5
20260902115944 22 0 0.0 0.0 0.00 0.00 0.00 89 1017.4
20260902115444 22 0 0.0 0.0 0.00 0.00 0.00 89 1017.4
20260902114944 22 0 0.0 0.0 0.00 0.00 0.00 89 1017.4
20260902114443 22 0 0.0 0.0 0.00 0.00 0.00 89 1017.2
20260902113942 22 0 0.0 0.0 0.00 0.00 0.00 89 1017.1
20260902113442 22 0 0.0 0.0 0.00 0.00 0.00 89 1017.1
20260902112941 22 0 0.0 0.0 0.00 0.00 0.00 89 1017.0
20260902112441 22 0 0.0 0.0 0.00 0.00 0.00 89 1017.0
20260902111939 22 0 0.0 0.0 0.00 0.00 0.00 89 1017.0
20260902111439 22 0 0.0 0.0 0.00 0.00 0.00 89 1017.0
20260902110939 22 0 0.0 0.0 0.00 0.00 0.00 89 1017.0
20260902110439 22 0 0.0 0.0 0.00 0.00 0.00 89 1016.9
20260902105938 22 0 0.0 0.0 0.00 0.00 0.00 89 1017.0
20260902105519 22 0 0.0 0.0 0.00 0.00 0.00 89 1017.0
20260902105438 22 0 0.0 0.0 0.00 0.00 0.00 89 1017.0
20260902104939 22 0 0.0 0.0 0.00 0.00 0.00 89 1017.1
20260902104436 22 0 0.0 0.0 0.00 0.00 0.00 89 1017.1
20260902103935 22 150 0.0 4.8 0.00 0.00 0.00 89 1017.1
20260902103436 22 141 0.0 1.6 0.00 0.00 0.00 89 1017.1
20260902102936 22 0 0.0 0.0 0.00 0.00 0.00 89 1017.0
20260902102436 22 0 0.0 0.0 0.00 0.00 0.00 89 1017.0
20260902101936 22 0 0.0 0.0 0.00 0.00 0.00 89 1017.0
20260902101434 22 0 0.0 0.0 0.00 0.00 0.00 89 1017.1
20260902100935 22 0 0.0 0.0 0.00 0.00 0.00 89 1017.0
20260902100435 22 0 0.0 0.0 0.00 0.00 0.00 89 1016.9
20260902095934 22 0 0.0 0.0 0.00 0.00 0.00 89 1016.9
20260902095433 22 0 0.0 0.0 0.00 0.00 0.00 89 1016.9
20260902094926 22 0 0.0 0.0 0.00 0.00 0.00 89 1016.9
20260902094426 22 0 0.0 0.0 0.00 0.00 0.00 89 1016.9
20260902093926 22 0 0.0 0.0 0.00 0.00 0.00 89 1016.9
20260902093426 22 0 0.0 0.0 0.00 0.00 0.00 89 1016.9
20260902092925 22 0 0.0 0.0 0.00 0.00 0.00 89 1016.8
20260902092423 22 0 0.0 0.0 0.00 0.00 0.00 89 1016.9
20260902091923 22 0 0.0 0.0 0.00 0.00 0.00 89 1016.9
20260902091423 22 0 0.0 0.0 0.00 0.00 0.00 89 1016.8
20260902090922 22 333 0.0 1.6 0.00 0.00 0.00 89 1016.8
20260902085922 22 0 0.0 0.0 0.00 0.00 0.00 89 1016.7
20260902085455 22 0 0.0 0.0 0.00 0.00 0.00 89 1016.6
20260902085422 22 0 0.0 0.0 0.00 0.00 0.00 89 1016.6
20260902084921 22 39 0.0 3.2 0.00 0.00 0.00 89 1016.6
20260902084421 22 13 1.6 3.2 0.00 0.00 0.00 89 1016.5
20260902083921 22 27 3.2 3.2 0.00 0.00 0.00 89 1016.4
20260902083422 22 13 1.6 3.2 0.00 0.00 0.00 89 1016.4
20260902082921 22 18 1.6 3.2 0.00 0.00 0.00 89 1016.5
20260902082420 22 14 1.6 3.2 0.00 0.00 0.00 88 1016.4
20260902081920 22 0 0.0 0.0 0.00 0.00 0.00 88 1016.4
20260902081420 22 4 0.0 1.6 0.00 0.00 0.00 88 1016.3
20260902080920 22 15 1.6 3.2 0.00 0.00 0.00 88 1016.3
20260902080418 22 17 1.6 3.2 0.00 0.00 0.00 88 1016.3
20260902075918 22 0 0.0 0.0 0.00 0.00 0.00 88 1016.2
20260902075418 22 0 0.0 0.0 0.00 0.00 0.00 88 1016.3
20260902074917 22 0 0.0 0.0 0.00 0.00 0.00 87 1016.3
20260902074417 22 0 0.0 0.0 0.00 0.00 0.00 88 1016.2
20260902073917 22 0 0.0 0.0 0.00 0.00 0.00 88 1016.2
20260902073417 22 0 0.0 0.0 0.00 0.00 0.00 88 1016.3
20260902072917 22 0 0.0 0.0 0.00 0.00 0.00 88 1016.3
20260902072415 22 0 0.0 0.0 0.00 0.00 0.00 88 1016.2
20260902071915 22 0 0.0 0.0 0.00 0.00 0.00 88 1016.2
20260902071415 22 0 0.0 0.0 0.00 0.00 0.00 88 1016.2
20260902070915 22 0 0.0 0.0 0.00 0.00 0.00 88 1016.2
20260902070414 22 21 0.0 1.6 0.00 0.00 0.00 88 1016.2
20260902065914 22 23 0.0 1.6 0.00 0.00 0.00 88 1016.3
20260902065414 22 23 0.0 1.6 0.00 0.00 0.00 88 1016.2
20260902064913 22 0 0.0 0.0 0.00 0.00 0.00 87 1016.2
20260902064413 22 0 0.0 0.0 0.00 0.00 0.00 87 1016.3
20260902063912 22 32 0.0 1.6 0.00 0.00 0.00 87 1016.2
20260902063412 22 30 0.0 1.6 0.00 0.00 0.00 87 1016.2
20260902062912 22 0 0.0 0.0 0.00 0.00 0.00 87 1016.3
20260902062410 22 0 0.0 0.0 0.00 0.00 0.00 87 1016.3
20260902061910 22 17 0.0 0.0 0.00 0.00 0.00 87 1016.3
20260902061410 22 20 1.6 1.6 0.00 0.00 0.00 87 1016.4
20260902060910 22 23 3.2 3.2 0.00 0.00 0.00 86 1016.3
20260902060410 23 24 1.6 3.2 0.00 0.00 0.00 86 1016.3
20260902055909 23 18 1.6 3.2 0.00 0.00 0.00 86 1016.3
20260902055409 23 25 1.6 3.2 0.00 0.00 0.00 86 1016.3
20260902054909 23 28 1.6 3.2 0.00 0.00 0.00 86 1016.3
20260902054409 23 21 3.2 3.2 0.00 0.00 0.00 86 1016.3
20260902053907 23 23 1.6 3.2 0.00 0.00 0.00 86 1016.4
20260902053407 23 31 3.2 3.2 0.00 0.00 0.00 86 1016.4
20260902052907 23 31 3.2 3.2 0.00 0.00 0.00 86 1016.4
20260902052406 23 21 3.2 3.2 0.00 0.00 0.00 86 1016.4
20260902051904 23 14 3.2 3.2 0.00 0.00 0.00 85 1016.3
20260902051404 23 13 3.2 3.2 0.00 0.00 0.00 85 1016.3
20260902050904 23 35 1.6 3.2 0.00 0.00 0.00 85 1016.3
20260902045903 23 18 3.2 3.2 0.00 0.00 0.00 84 1016.2
20260902045403 23 7 3.2 3.2 0.00 0.00 0.00 84 1016.3
20260902044903 23 1 3.2 4.8 0.00 0.00 0.00 84 1016.3
20260902043902 23 0 0.0 0.0 0.00 0.00 0.00 84 1016.3
20260902043402 23 0 0.0 0.0 0.00 0.00 0.00 84 1016.3
20260902042942 23 0 0.0 0.0 0.00 0.00 0.00 84 1016.3
20260902042902 23 0 0.0 0.0 0.00 0.00 0.00 84 1016.3
20260902042402 23 0 0.0 0.0 0.00 0.00 0.00 84 1016.4
20260902041859 23 0 0.0 0.0 0.00 0.00 0.00 83 1016.4
20260902041359 23 340 0.0 1.6 0.00 0.00 0.00 83 1016.4
20260902040859 23 0 0.0 0.0 0.00 0.00 0.00 83 1016.4
20260902040358 23 0 0.0 0.0 0.00 0.00 0.00 83 1016.4
20260902035856 23 0 0.0 0.0 0.00 0.00 0.00 83 1016.4
20260902035353 23 0 0.0 0.0 0.00 0.00 0.00 83 1016.4
20260902034352 23 0 0.0 0.0 0.00 0.00 0.00 82 1016.4
20260902033852 24 0 0.0 0.0 0.00 0.00 0.00 82 1016.4
20260902033352 24 0 0.0 0.0 0.00 0.00 0.00 82 1016.4
20260902032852 24 0 0.0 0.0 0.00 0.00 0.00 81 1016.3
20260902032351 24 0 0.0 0.0 0.00 0.00 0.00 81 1016.3
20260902031851 24 215 0.0 0.0 0.00 0.00 0.00 80 1016.3
20260902031351 24 0 0.0 0.0 0.00 0.00 0.00 80 1016.3
20260902030850 24 0 0.0 0.0 0.00 0.00 0.00 79 1016.3
20260902030350 24 0 0.0 0.0 0.00 0.00 0.00 79 1016.3
20260902025851 25 0 0.0 0.0 0.00 0.00 0.00 80 1016.3
20260902025350 24 13 0.0 1.6 0.00 0.00 0.00 80 1016.3
20260902024849 24 0 0.0 0.0 0.00 0.00 0.00 81 1016.2
20260902024349 24 0 0.0 0.0 0.00 0.00 0.00 81 1016.2
20260902023849 24 0 0.0 0.0 0.00 0.00 0.00 81 1016.3
20260902023349 24 0 0.0 0.0 0.00 0.00 0.00 81 1016.3
20260902022848 24 0 0.0 0.0 0.00 0.00 0.00 81 1016.3
20260902022348 24 0 0.0 0.0 0.00 0.00 0.00 81 1016.3
20260902021848 24 0 0.0 0.0 0.00 0.00 0.00 81 1016.3
20260902021348 25 0 0.0 0.0 0.00 0.00 0.00 81 1016.3
20260902020847 25 0 0.0 0.0 0.00 0.00 0.00 80 1016.3
20260902020504 25 6 0.0 3.2 0.00 0.00 0.00 79 1016.2
20260902020347 25 6 0.0 3.2 0.00 0.00 0.00 79 1016.2
20260902015847 25 0 0.0 0.0 0.00 0.00 0.00 79 1016.1
20260902015347 25 0 0.0 0.0 0.00 0.00 0.00 78 1016.1
20260902014847 25 0 0.0 0.0 0.00 0.00 0.00 77 1016.1
20260902014346 25 0 0.0 0.0 0.00 0.00 0.00 76 1016.1
20260902013846 25 0 0.0 0.0 0.00 0.00 0.00 75 1016.1
20260902013346 25 354 0.0 3.2 0.00 0.00 0.00 74 1016.0
20260902012846 25 7 0.0 3.2 0.00 0.00 0.00 74 1015.9
20260902012345 26 14 1.6 3.2 0.00 0.00 0.00 74 1015.8
20260902011845 26 0 0.0 0.0 0.00 0.00 0.00 73 1015.8
20260902011345 26 148 0.0 0.0 0.00 0.00 0.00 73 1015.8
20260902010846 26 0 0.0 0.0 0.00 0.00 0.00 71 1015.8
20260902010344 26 0 0.0 0.0 0.00 0.00 0.00 72 1015.7
20260902005844 26 0 0.0 0.0 0.00 0.00 0.00 72 1015.7
20260902005344 27 0 0.0 0.0 0.00 0.00 0.00 71 1015.7
20260902004844 27 0 0.0 0.0 0.00 0.00 0.00 69 1015.7
20260902004343 27 0 0.0 0.0 0.00 0.00 0.00 67 1015.7
20260902003843 28 0 0.0 0.0 0.00 0.00 0.00 65 1015.7
20260902003343 28 0 0.0 0.0 0.00 0.00 0.00 63 1015.7
20260902002843 29 0 0.0 0.0 0.00 0.00 0.00 60 1015.6
20260902002343 30 229 0.0 1.6 0.00 0.00 0.00 57 1015.7
20260902001842 30 222 1.6 4.8 0.00 0.00 0.00 52 1015.8
20260902001342 30 212 1.6 6.4 0.00 0.00 0.00 50 1015.8
20260902000842 31 221 3.2 8.0 0.00 0.00 0.00 50 1015.8
20260902000342 31 235 3.2 4.8 0.00 0.00 0.00 49 1015.9
20260901235841 31 239 3.2 6.4 0.00 0.00 0.00 49 1015.9
20260901235341 31 219 1.6 4.8 0.00 0.00 0.00 49 1015.9
20260901234841 31 249 4.8 6.4 0.00 0.00 0.00 48 1015.9
20260901234341 31 205 4.8 8.0 0.00 0.00 0.00 47 1015.9
20260901233841 31 214 6.4 9.7 0.00 0.00 0.00 47 1016.0
20260901233340 31 226 6.4 8.0 0.00 0.00 0.00 47 1016.0
20260901232840 31 232 6.4 9.7 0.00 0.00 0.00 47 1016.0
20260901232340 32 219 4.8 9.7 0.00 0.00 0.00 46 1016.0